Location: Dob?e?
(49.9411°N, 15.1496°E)
Time: 04:18:16
(UTC+00:00)

Helios 1B rocket - Pass Details

Date: 07 June 2020
Orbit: 575 x 583 km, 98.1° (Epoch: 14 July)

Event Time Altitude Azimuth Distance (km) Brightness Sun altitude
Rises 00:41:22 0° 3° (N) 2,821 7.3 -13.8°
Reaches altitude 10° 00:43:53 10° 348° (NNW) 1,916 5.9 -13.6°
Maximum altitude 00:47:05 22° 298° (WNW) 1,299 4.2 -13.4°
Enters shadow 00:49:56 12° 251° (WSW) 1,797 4.5 -13.2°
